Regional Weather Roundup
Issued by NWS

Home | Current Version | Previous Version | Graphics & Text | Print | Product List | Glossary On
Versions: 1 2 3 4 5 6 7 8 9 10 11 12 13 14 15 16 17 18 19 20 21 22 23 24 25 26 27 28 29 30 31 32 33 34 35 36 37 38 39 40 41 42 43 44 45 46 47 48 49 50
317
ASUS44 KLIX 280801
RWRLA
LOUISIANA WEATHER ROUNDUP
NATIONAL WEATHER SERVICE NEW ORLEANS LA
200 AM CST WED JAN 28 2015

NOTE: "FAIR" INDICATES FEW OR NO CLOUDS BELOW 12,000 FEET WITH NO
      SIGNIFICANT WEATHER AND/OR OBSTRUCTIONS TO VISIBILITY.
      SKY/WX - SKY CONDITION AND SIGNIFICANT WEATHER.
      TMP - AIR TEMPERATURE.    DP   - DEWPOINT TEMPERATURE.
      RH  - RELATIVE HUMIDITY.  PRES - PRESSURE.
      HX  - HEAT INDEX.         WCI  - WIND CHILL INDEX.

*  THESE STATIONS ARE NOT NWS OR FAA STATIONS AND ARE NOT UNDER
   NWS QUALITY CONTROL.

LAZ040-048-061>063-065-066-069-280900-
SOUTHEAST LOUISIANA

CITY           SKY/WX    TMP DP  RH WIND       PRES   REMARKS
N.O. AUDUBON   NOT AVBL
N.O. INTL ARPT CLEAR     52  39  61 NE8       30.19R
N.O. LAKEFRONT CLEAR     55  42  61 NE6       30.20R
N.O. DOWNTOWN* FAIR      55  34  44 NE5       30.19S
SLIDELL        CLEAR     42  37  82 N3        30.19R
BATON ROUGE    CLEAR     43  37  79 NE5       30.18S
BOOTHVILLE     CLEAR     52  46  80 N6        30.18S
BELLE CHASSE   CLEAR     51  35  54 NE6       30.18S
BOGALUSA*        N/A     38  34  85 CALM      30.21S
GALLIANO*      NOT AVBL
NEW ROADS*     NOT AVBL
GONZALES*      NOT AVBL
HAMMOND*       NOT AVBL
HOUMA*         CLEAR     47  46  96 CALM      30.18R
PORT FOURCHON* SUNNY     57  48  72 NE9       30.21R

$$

LAZ041-044-053-054-280900-
SOUTHWEST LOUISIANA

CITY           SKY/WX    TMP DP  RH WIND       PRES   REMARKS
LAKE CHARLES   CLEAR     45  44  97 CALM      30.17S
LAFAYETTE      CLEAR     47  40  76 CALM      30.17S
PATTERSON      CLEAR     46  43  87 CALM      30.19S
SALT POINT       N/A     49  46  90 CALM      30.17R
NEW IBERIA     CLEAR     46  43  89 CALM      30.18S
CHENAULT AIRPK CLEAR     45  45  98 CALM      30.18S

$$

LAZ027-028-280900-
CENTRAL LOUISIANA

CITY           SKY/WX    TMP DP  RH WIND       PRES   REMARKS
FORT POLK      NOT AVBL
ALEXANDRIA INT CLEAR     43  39  86 CALM      30.16S
ALEXANDRIA     CLEAR     39  36  89 CALM      30.18S

$$

LAZ001-002-280900-
NORTHWEST LOUISIANA

CITY           SKY/WX    TMP DP  RH WIND       PRES   REMARKS
SHREVEPORT     CLEAR     43  38  82 CALM      30.13F
BARKSDALE AFB  CLEAR     42  38  85 SE5       30.15
DTN SHREVEPORT CLEAR     43  36  76 SE5       30.14S

$$

LAZ014-016-280900-
NORTHEAST LOUISIANA

CITY           SKY/WX    TMP DP  RH WIND       PRES   REMARKS
MONROE         CLEAR     42  38  85 CALM      30.19S
TALLULAH       CLEAR     37  35  92 CALM      30.20R

$$




USA.gov is the U.S. government's official web portal to all federal, state and local government web resources and services.